Home   Weather   Gorzów Wielkopolski   Past weeks

Flag for Poland Past Weather in Gorzów Wielkopolski, Poland — Yesterday and Last 2 Weeks

Now
41 °F

Clear.


Feels Like: 39 °F
Forecast: 40 / 58 °F
Wind: 3 mph from East

Location: Gorzow Wlkp

Current Time: May 1, 2017 at 12:45:58 am

Latest Report: May 1, 2017 at 12:00 am


Visibility: 25 mi

Pressure: 30.14 "Hg

Humidity: 75%

Dew Point: 33 °F

Location of Gorzów WielkopolskiLocation

Past Weather in Gorzów Wielkopolski — Graph

°F

Gorzów Wielkopolski Temperature Yesterday

Maximum temperature yesterday: 53 °F (at 4:00 pm)
Minimum temperature yesterday: 33 °F (at 6:00 am)
Average temperature yesterday: 44 °F

High & Low Weather Summary for the Past Weeks

 TemperatureHumidityPressure
High57 °F (Apr 21, 6:00 pm)96% (Apr 17, 7:00 am)30.57 "Hg (Apr 17, 7:00 am)
Low27 °F (Apr 20, 6:00 am)36% (Apr 20, 4:00 pm)29.55 "Hg (Apr 25, 10:00 am)
Average42 °F68%30.05 "Hg
* Reported Apr 15 11:00 pm — Apr 30 11:00 pm, Gorzów Wielkopolski, Weather by CustomWeather, © 2017

Note: Actual official high and low records may vary slightly from our data, if they occured in-between our weather recording intervals... More about our weather records

Advertising

Gorzów Wielkopolski Weather History for the Previous 24 Hours

Scroll right to see more
 ConditionsComfort  
Time TempWeatherWind HumidityBarometerVisibility
11:00 pm
Sun, Apr 30
42 °FPassing clouds.3 mph70%30.14 "Hg25 mi
10:00 pm44 °FPassing clouds.3 mph66%30.14 "Hg25 mi
9:00 pm45 °FPassing clouds.3 mph61%30.14 "Hg25 mi
8:00 pm48 °FPassing clouds.3 mph53%30.14 "Hg25 mi
7:00 pm51 °FPassing clouds.5 mph45%30.14 "Hg25 mi
6:00 pm52 °FPassing clouds.6 mph42%30.15 "Hg31 mi
5:00 pm53 °FPassing clouds.6 mph42%30.16 "Hg31 mi
4:00 pm53 °FPassing clouds.6 mph42%30.16 "Hg31 mi
3:00 pm52 °FPassing clouds.5 mph45%30.19 "Hg31 mi
2:00 pm52 °FPassing clouds.5 mph47%30.20 "Hg31 mi
1:00 pm51 °FScattered clouds.5 mph51%30.21 "Hg31 mi
12:00 pm48 °FScattered clouds.5 mph57%30.22 "Hg31 mi
11:00 am47 °FPassing clouds.5 mph60%30.23 "Hg25 mi
10:00 am44 °FPassing clouds.5 mph66%30.24 "Hg25 mi
9:00 am42 °FPassing clouds.5 mph72%30.23 "Hg25 mi
8:00 am40 °FPassing clouds.5 mph80%30.23 "Hg12 mi
7:00 am37 °FSunny.3 mph89%30.22 "Hg11 mi
6:00 am33 °FPassing clouds.2 mph96%30.20 "Hg6 mi
5:00 am33 °FPassing clouds.2 mph95%30.20 "Hg9 mi
4:00 am34 °FClear.2 mph94%30.18 "Hg9 mi
3:00 am35 °FClear.2 mph93%30.17 "Hg12 mi
2:00 am35 °FClear.2 mph91%30.15 "Hg12 mi
1:00 am37 °FClear.2 mph89%30.14 "Hg12 mi
12:00 am39 °FClear.2 mph83%30.14 "Hg16 mi
Weather by CustomWeather, © 2017

See weather overviewHow to use our weather pages